Montgomery, WV (25136)

1:37 AM EDT on September 17, 2014 (GMT -0400)
KWVGLENF2 | Change Station
CLOSE
Current Station
Personal Weather Station
Location: Glen Ferris, WV
Elevation: 676 ft
Nearby Weather Stations

Elev 676 ft 38.15 °N, 81.22 °W | Updated 4 minutes ago

Overcast
Overcast
59.2 °F
Feels Like 59.2 °F
N
0.0
Wind Variable Wind from NW
Gusts 0.0 mph

Today
High -- | Low -- °F
--% Chance of Precip.
Yesterday
High -- | Low -- °F
Precip. -- in
7:08 AM 7:30 PM
Last Quarter, 39% visible
Pressure 30.07 in
Visibility 0.2 miles
Clouds
Dew Point 58 °F
Humidity 94%
Rainfall 0.00 in
Snow Depth Not available.
UV Not available.
Pollen 3.50 out of 12
Air Quality Not available.
Flu Activity Not available.
METAR KCRW 170454Z 00000KT 1/4SM FG VV001 13/13 A3008 RMK AO2 SLP182 T01330133 401830128 RVRNO $

More Conditions Fewer Conditions

Pressure 30.07 in
Visibility 0.2 miles
Clouds
Dew Point 58 °F
Humidity 94%
Rainfall 0.00 in
Snow Depth Not available.
UV Not available.
Pollen 3.50 out of 12
Air Quality Not available.
Flu Activity Not available.
METAR KCRW 170454Z 00000KT 1/4SM FG VV001 13/13 A3008 RMK AO2 SLP182 T01330133 401830128 RVRNO $

More Conditions Fewer Conditions

10-Day Weather Forecast

Almanac

Astronomy

Sep. 17, 2014 Rise Set
Actual Time 7:08 AM EDT 7:30 PM EDT
Civil Twilight 6:42 AM EDT 7:56 PM EDT
Nautical Twilight 6:11 AM EDT 8:27 PM EDT
Astronomical Twilight 5:39 AM EDT 8:59 PM EDT
Moon 1:11 AM EDT 3:35 PM EDT
Length of Visible Light 13h 14m
Length of Day
12h 21m
Tomorrow will be 2m 27s shorter.
Last Quarter, 39% of the Moon is Illuminated
Today
Last Quarter
Sep 24
New
Oct 1
First Quarter
Oct 8
Full
Oct 15
Last Quarter

Today's Extremes

State Highs State Lows

Community

WunderPhotos

Upload Photos

1,753,968 photos uploaded!

Nearby

Snow Depth

Station Depth Elevation
No new snow has been reported.

Earthquake Activity

City Distance Mag. Time & Date
No recent earthquake activity has been reported nearby.
Minimum magnitude displayed is 2.5.

Coastal Water Temperatures

Place Temperature
No Stations Reporting

Nearby Weather Stations